Location: Central Falls
(41.8900°N, 71.3929°W)
Time: 21:59:40
(UTC+00:00)

A-11 Canister half - All Passes

Search period start: 06 December 2023 00:00
Search period end: 16 December 2023 00:00
Orbit: 1514 x 1686 km, 47.2° (Epoch: 05 December)

Date Brightness Start Highest point End Pass type
(mag) Time Alt. Az. Time Alt. Az. Time Alt. Az.
06 Dec - 03:22:17 10° SSW 03:30:56 42° SE 03:39:52 10° ENE night (unlit)
06 Dec - 05:25:43 10° WSW 05:35:21 85° NNW 05:45:24 10° ENE visible
06 Dec - 07:31:24 10° W 07:41:08 65° N 07:51:13 10° E visible
06 Dec - 09:36:54 10° WNW 09:46:56 87° NNE 09:57:10 10° ESE visible
06 Dec - 11:42:18 10° WNW 11:51:27 41° SW 12:00:40 10° SSE daylight
07 Dec - 02:59:33 10° SSW 03:08:02 39° SE 03:16:48 10° ENE night (unlit)
07 Dec - 05:02:45 10° WSW 05:12:21 88° NNW 05:22:22 10° ENE visible
07 Dec - 07:08:23 10° W 07:18:05 65° N 07:28:08 10° E visible
07 Dec - 09:13:54 10° WNW 09:23:55 85° NNE 09:34:09 10° ESE visible
07 Dec - 11:19:15 10° WNW 11:28:31 44° SW 11:37:52 10° SSE visible
08 Dec - 02:36:50 10° SSW 02:45:09 37° SE 02:53:43 10° ENE night (unlit)
08 Dec - 04:39:48 10° WSW 04:49:22 90° SSE 04:59:20 10° ENE night (unlit)
08 Dec - 06:45:22 10° W 06:55:02 65° N 07:05:04 10° E visible
08 Dec - 08:50:56 10° WNW 09:00:54 83° NNE 09:11:08 10° ESE visible
08 Dec - 10:56:13 10° WNW 11:05:34 46° SW 11:15:04 10° SSE visible
08 Dec - 13:06:12 10° WSW 13:08:42 11° WSW 13:11:13 10° SW daylight
09 Dec - 02:14:08 10° SSW 02:22:16 34° SE 02:30:37 10° ENE night (unlit)
09 Dec - 04:16:51 10° WSW 04:26:23 87° SSE 04:36:19 10° ENE night (unlit)
09 Dec - 06:22:21 10° W 06:32:00 65° N 06:41:59 10° ENE visible
09 Dec - 08:27:56 10° WNW 08:37:53 81° NNE 08:48:05 10° ESE visible
09 Dec - 10:33:11 10° WNW 10:42:38 49° SW 10:52:13 10° SSE visible
09 Dec - 12:42:09 10° W 12:45:51 13° WSW 12:49:33 10° SW daylight
10 Dec - 01:51:28 10° S 01:59:24 32° SE 02:07:32 10° ENE visible
10 Dec - 03:53:55 10° WSW 04:03:24 84° SSE 04:13:18 10° ENE night (unlit)
10 Dec - 05:59:21 10° W 06:08:57 65° N 06:18:55 10° ENE visible
10 Dec - 08:04:57 10° WNW 08:14:51 79° NNE 08:25:03 10° ESE visible
10 Dec - 10:10:10 10° WNW 10:19:41 52° SW 10:29:22 10° SSE visible
10 Dec - 12:18:27 10° W 12:22:59 14° WSW 12:27:32 10° SSW daylight
11 Dec - 01:28:49 10° S 01:36:31 30° SE 01:44:25 10° ENE visible
11 Dec - 03:31:00 10° SW 03:40:27 81° SSE 03:50:17 10° ENE night (unlit)
11 Dec - 05:36:21 10° W 05:45:55 66° N 05:55:52 10° ENE visible
11 Dec - 07:41:58 10° WNW 07:51:50 77° NNE 08:01:59 10° ESE visible
11 Dec - 09:47:10 10° WNW 09:56:44 54° SW 10:06:29 10° SSE visible
11 Dec - 11:54:56 10° W 12:00:07 15° WSW 12:05:21 10° SSW daylight
12 Dec - 01:06:12 10° S 01:13:39 28° SE 01:21:17 10° ENE visible
12 Dec - 03:08:05 10° SW 03:17:29 78° SSE 03:27:16 10° ENE night (unlit)
12 Dec - 05:13:20 10° W 05:22:53 66° N 05:32:48 10° ENE visible
12 Dec - 07:18:59 10° WNW 07:28:48 75° NNE 07:38:56 10° ESE visible
12 Dec - 09:24:10 10° WNW 09:33:47 57° SW 09:43:36 10° SE visible
12 Dec - 11:31:30 10° W 11:37:15 17° SW 11:43:03 10° SSW visible
13 Dec - 00:43:36 10° S 00:50:47 26° SE 00:58:08 10° ENE visible
13 Dec - 02:45:11 10° SW 02:54:31 75° SSE 03:04:14 10° ENE visible
13 Dec - 04:50:19 10° W 04:59:50 67° N 05:09:44 10° ENE night (unlit)
13 Dec - 06:56:01 10° WNW 07:05:47 73° NNE 07:15:52 10° E visible
13 Dec - 09:01:10 10° WNW 09:10:50 60° SW 09:20:43 10° SE visible
13 Dec - 11:08:10 10° W 11:14:22 19° SW 11:20:39 10° SSW visible
14 Dec - 00:21:02 10° S 00:27:56 24° SE 00:34:57 10° E visible
14 Dec - 02:22:17 10° SW 02:31:35 72° SSE 02:41:13 10° ENE visible
14 Dec - 04:27:19 10° W 04:36:49 68° N 04:46:41 10° ENE night (unlit)
14 Dec - 06:33:01 10° WNW 06:42:45 72° NNE 06:52:48 10° E visible
14 Dec - 08:38:11 10° WNW 08:47:52 63° SW 08:57:48 10° SE visible
14 Dec - 10:44:53 10° W 10:51:30 20° SW 10:58:12 10° SSW visible
14 Dec - 23:58:31 10° S 00:05:05 22° SE 00:11:45 10° E visible
15 Dec - 01:59:24 10° SW 02:08:38 69° SE 02:18:13 10° ENE visible
15 Dec - 04:04:19 10° W 04:13:47 69° NNW 04:23:38 10° ENE night (unlit)
15 Dec - 06:10:02 10° WNW 06:19:43 70° NNE 06:29:44 10° E visible
15 Dec - 08:15:12 10° WNW 08:24:54 66° SW 08:34:52 10° SE visible
15 Dec - 10:21:39 10° W 10:28:36 22° SW 10:35:41 10° S visible
15 Dec - 23:36:02 10° S 23:42:15 20° SE 23:48:31 10° E visible
